Home   Weather   Wailuku   Past weeks

Flag for USA Past Weather in Wailuku, Hawaii, USA — Yesterday and Last 2 Weeks

Now
76 °F

Broken clouds.


Feels Like: 76 °F
Forecast: 75 / 86 °F
Wind: 5 mph from North

Location: Kahului Airport

Current Time: Jul 27, 2017 at 8:51:22 am

Latest Report: Jul 27, 2017 at 7:54 am


Visibility: 9 mi

Pressure: 30.06 "Hg

Humidity: 85%

Dew Point: 71 °F

Location of WailukuLocation

Past Weather in Wailuku — Graph

°F

Wailuku Temperature Yesterday

Maximum temperature yesterday: 88 °F (at 12:54 pm)
Minimum temperature yesterday: 75 °F (at 11:54 pm)
Average temperature yesterday: 81 °F

High & Low Weather Summary for the Past Weeks

 TemperatureHumidityPressure
High90 °F (Jul 13, 11:54 am)94% (Jul 23, 7:54 pm)30.11 "Hg (Jul 23, 7:54 pm)
Low72 °F (Jul 25, 12:54 am)42% (Jul 13, 9:54 am)29.92 "Hg (Jul 24, 5:54 am)
Average80 °F69%30.03 "Hg
* Reported Jul 12 6:54 am — Jul 27 6:54 am, Wailuku. Weather by CustomWeather, © 2017

Note: Actual official high and low records may vary slightly from our data, if they occured in-between our weather recording intervals... More about our weather records

Advertising

Wailuku Weather History for the Previous 24 Hours

Scroll right to see more
 ConditionsComfort  
Time TempWeatherWind HumidityBarometerVisibility
6:54 am
Thu, Jul 27
75 °FPartly sunny.5 mph88%30.05 "Hg10 mi
5:54 am73 °FPassing clouds.6 mph84%30.04 "Hg10 mi
4:54 am73 °FPassing clouds.9 mph84%30.03 "Hg10 mi
3:54 am75 °FClear.9 mph82%30.02 "Hg10 mi
2:54 am75 °FClear.10 mph82%30.03 "Hg10 mi
1:54 am75 °FClear.9 mph82%30.04 "Hg10 mi
12:54 am75 °FPassing clouds.10 mph85%30.06 "Hg10 mi
11:54 pm
Wed, Jul 26
75 °FPassing clouds.9 mph85%30.08 "Hg10 mi
10:54 pm77 °FOvercast.12 mph77%30.09 "Hg10 mi
9:54 pm78 °FClear.12 mph71%30.09 "Hg10 mi
8:54 pm78 °FClear.16 mph71%30.08 "Hg10 mi
7:54 pm79 °FPassing clouds.20 mph69%30.07 "Hg10 mi
6:54 pm80 °FScattered clouds.14 mph64%30.05 "Hg10 mi
5:54 pm83 °FPassing clouds.20 mph61%30.04 "Hg10 mi
4:54 pm84 °FPassing clouds.22 mph61%30.03 "Hg10 mi
3:54 pm86 °FPassing clouds.24 mph57%30.04 "Hg10 mi
2:54 pm87 °FPassing clouds.23 mph55%30.05 "Hg10 mi
1:54 pm87 °FPassing clouds.24 mph55%30.07 "Hg10 mi
12:54 pm88 °FScattered clouds.23 mph54%30.08 "Hg10 mi
11:54 am87 °FScattered clouds.23 mph53%30.09 "Hg10 mi
10:54 am87 °FScattered clouds.24 mph55%30.11 "Hg10 mi
9:54 am85 °FScattered clouds.16 mph57%30.11 "Hg10 mi
8:54 am84 °FScattered clouds.15 mph61%30.11 "Hg10 mi
Weather by CustomWeather, © 2017

See weather overviewHow to use our weather pages